Home > Weather > Belo Horizonte > Past weeks

Flag for Brazil Weather for the Past 2 Weeks in Belo Horizonte, Minas Gerais, Brazil

Now
63 °F

Thundershowers. Overcast.


Feels Like: 63 °F
Forecast: N/A
Wind: 9 mph from Southeast

Location: Belo Horizonte Airport

Current Time: Apr 29, 2016 at 7:04:24 PM

Latest Report: Apr 29, 2016 at 6:00 PM


Visibility: N/A

Pressure: 30.07 "Hg (27.17 "Hg at 860m altitude)

Humidity: 94%

Dew Point: 61 °F

Location of Belo HorizonteLocation

Historic Weather in Belo Horizonte — Graph

°F

Belo Horizonte Temperature Yesterday

Maximum temperature yesterday: 79 °F (at 1:00 PM)
Minimum temperature yesterday: 64 °F (at 11:00 PM)
Average temperature yesterday: 69 °F

High & Low Weather Summary for the Past Weeks

 TemperatureHumidityPressure
High86 °F (Apr 15, 2:00 PM)100% (Apr 26, 3:00 AM)30.27 "Hg (Apr 26, 3:00 AM)
Low59 °F (Apr 24, 7:00 AM)31% (Apr 15, 2:00 PM)29.92 "Hg (Apr 26, 2:00 PM)
Average73 °F65%30.10 "Hg
* Reported Apr 14 5:00 PM — Apr 29 5:00 PM, Belo Horizonte, Weather by CustomWeather, © 2016

Note: Actual official high and low records may vary slightly from our data, if they occured in-between our weather recording intervals... More about our weather records

Advertising

Belo Horizonte Weather History for the Previous 24 Hours

Scroll right to see more
 ConditionsComfort  
Time TempWeatherWind HumidityBarometerVisibility
5:00 PM
Fri, Apr 29
64 °FBroken clouds.7 mph88%30.04 "HgN/A
4:00 PM64 °FPartly sunny.10 mph88%30.04 "HgN/A
3:00 PM64 °FScattered clouds.13 mph94%30.07 "Hg5 mi
2:00 PM63 °FLight rain. Mostly cloudy.9 mph94%30.07 "Hg2 mi
1:00 PM63 °FLight rain. Mostly cloudy.3 mph94%30.09 "Hg5 mi
12:00 PM64 °FPartly sunny.12 mph94%30.09 "HgN/A
11:00 AM61 °FLight rain. Fog.13 mph94%N/A2 mi
10:00 AM66 °FPartly sunny.8 mph83%30.15 "HgN/A
9:00 AM64 °FScattered showers. Partly sunny.8 mph94%30.12 "HgN/A
8:00 AM64 °FBroken clouds.6 mph94%30.12 "HgN/A
7:00 AM64 °FBroken clouds.7 mph88%30.09 "HgN/A
6:00 AM64 °FPartly cloudy.8 mph94%30.07 "HgN/A
5:00 AM66 °FPartly cloudy.12 mph88%30.07 "HgN/A
4:00 AM64 °FPartly cloudy.6 mph100%30.04 "HgN/A
3:00 AM64 °FPartly cloudy.6 mph100%30.04 "HgN/A
2:00 AM66 °FPartly cloudy.7 mph94%30.07 "HgN/A
1:00 AM66 °FPassing clouds.8 mph94%30.07 "HgN/A
12:00 AM64 °FPassing clouds.5 mph100%30.09 "HgN/A
11:00 PM
Thu, Apr 28
64 °FPassing clouds.3 mph100%30.09 "HgN/A
10:00 PM66 °FPassing clouds.5 mph94%30.09 "HgN/A
9:00 PM66 °FPassing clouds.6 mph94%30.09 "HgN/A
8:00 PM66 °FPartly cloudy.5 mph94%30.09 "Hg6 mi
7:00 PM66 °FPartly cloudy.3 mph88%30.07 "HgN/A
Weather by CustomWeather, © 2016

See weather overviewHow to use our weather pages